STARLINK-1905 (46746 NORAD) Tracking and Keplerian Element Data

This shows tracking and keplerian element data for the satellite.

Feedback or suggestion? Click here.




ElementValue
Catalog46746
NameSTARLINK-1905
Epoch Orbit1339
Epoch Day15.17116127
Epoch Year2021
RAAN119.2868
Inclination53.0529
Eccentricity9.28E-05
Argument of Perigee16.567
Mean Anonmoly343.5354
Mean Motion15.19153786
Decay Rate-0.00278095
L11 46746U 20074H 21015.17116127 -.00278095 00000-0 -13559-1 0 9992
L22 46746 53.0529 119.2868 0000928 16.5670 343.5354 15.19153786 13391

Live tracking and technical data element details for STARLINK-1905 (NORAD 46746). STARLINK-1905 can be tracked NOW for your location showing map with azimuth and elevation plus other details from your city location.

Track the satellite on the map from your city or location and see movement details for azimuth, elevation, latitude, longitude, range, height, and movement on the map or in text.







IsCatalogInMostPopularTable: catalog: 46746, numindb: 29
Update: records affected: 1



GetName: 46746 STARLINK-1905

Hit Count: updated at: Sat, 16 Jan 2021 00:02:19 GMT